Location: ???????
(55.4362°N, 38.1183°E)
Time: 03:52:09
(UTC+00:00)

Cosmos 1980 - Pass Details

Date: 17 June 2021
Orbit: 839 x 848 km, 71.0° (Epoch: 26 July)

Event Time Altitude Azimuth Distance (km) Brightness Sun altitude
Exits shadow 20:53:41 12° 192° (SSW) 2,316 5.4 -10.8°
Maximum altitude 20:58:50 58° 116° (ESE) 983 3.9 -10.9°
Drops below altitude 10° 21:04:25 10° 39° (NE) 2,484 6.8 -11.0°
Sets 21:06:54 0° 35° (NE) 3,424 7.7 -11.0°
